| time (UTC) | temp F | wind direction | speed MPH | gust MPH | rain 1hr in | rain 24hr in | rain mn in | humidity % | barometer mb |
| 20260503211808 | 48 | 280 | 7.0 | 0.0 | 0.00 | 0.00 | 0.00 | 62 | 1019.0 |
| 20260503210308 | 48 | 280 | 7.0 | 0.0 | 0.00 | 0.00 | 0.00 | 62 | 1019.0 |
| 20260503204815 | 46 | 270 | 3.0 | 0.0 | 0.00 | 0.00 | 0.00 | 66 | 1019.0 |
| 20260503203423 | 46 | 270 | 3.0 | 0.0 | 0.00 | 0.00 | 0.00 | 66 | 1019.0 |
| 20260503201808 | 46 | 1.0 | 0.0 | 0.00 | 0.00 | 0.00 | 66 | 1019.0 | |
| 20260503200317 | 46 | 1.0 | 0.0 | 0.00 | 0.00 | 0.00 | 66 | 1019.0 | |
| 20260503194833 | 48 | 260 | 5.0 | 0.0 | 0.00 | 0.00 | 0.00 | 62 | 1019.0 |
| 20260503193423 | 48 | 260 | 5.0 | 0.0 | 0.00 | 0.00 | 0.00 | 62 | 1019.0 |
| 20260503191808 | 50 | 290 | 1.0 | 0.0 | 0.00 | 0.00 | 0.00 | 58 | 1019.0 |
| 20260503190308 | 50 | 290 | 1.0 | 0.0 | 0.00 | 0.00 | 0.00 | 58 | 1019.0 |
| 20260503184922 | 48 | 2.0 | 0.0 | 0.00 | 0.00 | 0.00 | 66 | 1019.0 | |
| 20260503183307 | 48 | 2.0 | 0.0 | 0.00 | 0.00 | 0.00 | 66 | 1019.0 | |
| 20260503181808 | 54 | 0 | 0.0 | 0.0 | 0.00 | 0.00 | 0.00 | 51 | 1018.0 |
| 20260503180307 | 54 | 0 | 0.0 | 0.0 | 0.00 | 0.00 | 0.00 | 51 | 1018.0 |
| 20260503174828 | 59 | 1.0 | 0.0 | 0.00 | 0.00 | 0.00 | 42 | 1018.0 | |
| 20260503173332 | 59 | 1.0 | 0.0 | 0.00 | 0.00 | 0.00 | 42 | 1018.0 | |
| 20260503171808 | 61 | 190 | 5.0 | 0.0 | 0.00 | 0.00 | 0.00 | 36 | 1018.0 |
| 20260503170308 | 61 | 190 | 5.0 | 0.0 | 0.00 | 0.00 | 0.00 | 36 | 1018.0 |
| 20260503150308 | 64 | 1.0 | 0.0 | 0.00 | 0.00 | 0.00 | 30 | 1019.0 | |
| 20260503130308 | 63 | 3.0 | 0.0 | 0.00 | 0.00 | 0.00 | 34 | 1020.0 | |
| 20260503110329 | 61 | 120 | 6.0 | 0.0 | 0.00 | 0.00 | 0.00 | 31 | 1022.0 |
| 20260503090329 | 57 | 100 | 8.0 | 0.0 | 0.00 | 0.00 | 0.00 | 33 | 1023.0 |
| 20260503080318 | 55 | 90 | 6.0 | 0.0 | 0.00 | 0.00 | 0.00 | 33 | 1023.0 |
| 20260503071810 | 54 | 60 | 5.0 | 0.0 | 0.00 | 0.00 | 0.00 | 47 | 1023.0 |
| 20260503070309 | 54 | 60 | 5.0 | 0.0 | 0.00 | 0.00 | 0.00 | 47 | 1023.0 |
| 20260503060308 | 46 | 90 | 6.0 | 0.0 | 0.00 | 0.00 | 0.00 | 62 | 1023.0 |
| 20260503054808 | 45 | 2.0 | 0.0 | 0.00 | 0.00 | 0.00 | 71 | 1023.0 | |
| 20260503053308 | 45 | 2.0 | 0.0 | 0.00 | 0.00 | 0.00 | 71 | 1023.0 | |
| 20260503051808 | 41 | 2.0 | 0.0 | 0.00 | 0.00 | 0.00 | 76 | 1023.0 | |
| 20260503050308 | 41 | 2.0 | 0.0 | 0.00 | 0.00 | 0.00 | 76 | 1023.0 | |
| 20260503044808 | 39 | 2.0 | 0.0 | 0.00 | 0.00 | 0.00 | 75 | 1023.0 | |
| 20260503043309 | 39 | 2.0 | 0.0 | 0.00 | 0.00 | 0.00 | 75 | 1023.0 | |
| 20260503041808 | 37 | 90 | 5.0 | 0.0 | 0.00 | 0.00 | 0.00 | 81 | 1022.0 |
| 20260503040331 | 37 | 90 | 5.0 | 0.0 | 0.00 | 0.00 | 0.00 | 81 | 1022.0 |
| 20260503034810 | 36 | 110 | 5.0 | 0.0 | 0.00 | 0.00 | 0.00 | 81 | 1022.0 |
| 20260503033308 | 36 | 110 | 5.0 | 0.0 | 0.00 | 0.00 | 0.00 | 81 | 1022.0 |
| 20260503031808 | 36 | 70 | 3.0 | 0.0 | 0.00 | 0.00 | 0.00 | 75 | 1022.0 |
| 20260503030308 | 36 | 70 | 3.0 | 0.0 | 0.00 | 0.00 | 0.00 | 75 | 1022.0 |
| 20260503024823 | 39 | 70 | 5.0 | 0.0 | 0.00 | 0.00 | 0.00 | 65 | 1022.0 |
| 20260503023308 | 39 | 70 | 5.0 | 0.0 | 0.00 | 0.00 | 0.00 | 65 | 1022.0 |
| 20260503021808 | 39 | 1.0 | 0.0 | 0.00 | 0.00 | 0.00 | 70 | 1022.0 | |
| 20260503020308 | 39 | 1.0 | 0.0 | 0.00 | 0.00 | 0.00 | 70 | 1022.0 | |
| 20260503014808 | 39 | 30 | 2.0 | 0.0 | 0.00 | 0.00 | 0.00 | 70 | 1022.0 |
| 20260503013308 | 39 | 30 | 2.0 | 0.0 | 0.00 | 0.00 | 0.00 | 70 | 1022.0 |
| 20260503011808 | 41 | 60 | 3.0 | 0.0 | 0.00 | 0.00 | 0.00 | 66 | 1022.0 |
| 20260503010308 | 41 | 60 | 3.0 | 0.0 | 0.00 | 0.00 | 0.00 | 66 | 1022.0 |
| 20260503004808 | 45 | 2.0 | 0.0 | 0.00 | 0.00 | 0.00 | 57 | 1022.0 | |
| 20260503003308 | 45 | 2.0 | 0.0 | 0.00 | 0.00 | 0.00 | 57 | 1022.0 | |
| 20260503001808 | 43 | 2.0 | 0.0 | 0.00 | 0.00 | 0.00 | 66 | 1022.0 | |
| 20260503000308 | 43 | 2.0 | 0.0 | 0.00 | 0.00 | 0.00 | 66 | 1022.0 | |
| 20260502234808 | 43 | 2.0 | 0.0 | 0.00 | 0.00 | 0.00 | 66 | 1022.0 | |
| 20260502233308 | 43 | 2.0 | 0.0 | 0.00 | 0.00 | 0.00 | 66 | 1022.0 | |
| 20260502231808 | 46 | 1.0 | 0.0 | 0.00 | 0.00 | 0.00 | 57 | 1022.0 | |
| 20260502230308 | 46 | 1.0 | 0.0 | 0.00 | 0.00 | 0.00 | 57 | 1022.0 | |
| 20260502224808 | 46 | 160 | 5.0 | 0.0 | 0.00 | 0.00 | 0.00 | 57 | 1022.0 |
| 20260502223308 | 46 | 160 | 5.0 | 0.0 | 0.00 | 0.00 | 0.00 | 57 | 1022.0 |
| 20260502221808 | 48 | 150 | 8.0 | 0.0 | 0.00 | 0.00 | 0.00 | 58 | 1022.0 |
| 20260502220308 | 48 | 150 | 8.0 | 0.0 | 0.00 | 0.00 | 0.00 | 58 | 1022.0 |
| 20260502214808 | 48 | 150 | 8.0 | 0.0 | 0.00 | 0.00 | 0.00 | 58 | 1022.0 |
| 20260502213308 | 48 | 150 | 8.0 | 0.0 | 0.00 | 0.00 | 0.00 | 58 | 1022.0 |